www.pogodaiklimat.ru

Погода и климат >> Архив погоды >> Австралия >> Geraldton Airport


ПОГОДА в Geraldton Airport

  • Прогноз погоды в Geraldton Airport
  • Монитор погоды в Geraldton Airport
  • Климат города

АРХИВ ПОГОДЫ в Geraldton Airport

Время (UTC), дата Ветер
(напр.,м/с)
 
Видим.   Явления Облачность Т
(С)
Тd
(С)
f
(%)
Тe
(С)
Тes
(С)
Комфортность P
(гПа)
Po
(гПа)
Тmin
(С)
Tmax
(С)
R
(мм)
R24
(мм)
S
(см)
22 17.04 СВ 3 н/о н/о +12.9 +11.3 90 +12 +12 1018.5 1015.0
00 18.04 СВ 4 н/о н/о +17.1 +12.8 76 +17 +17 1018.9 1015.4
01 18.04 ЮВ 4 н/о н/о +21.4 +14.6 65 +24 +24 комфорт 1018.8 1015.3 +12.3
03 18.04 Ю 6 н/о н/о +24.4 +14.8 55 +27 +27 жарко 1017.9 1014.4
04 18.04 Ю 8 н/о н/о +24.7 +14.2 52 +27 +27 жарко 1017.4 1013.9
06 18.04 Ю 8 н/о н/о +24.7 +15.3 56 +28 +28 душно 1016.1 1012.6
07 18.04 Ю 8 н/о н/о +24.3 +14.7 55 +27 +27 жарко 1015.7 1012.2
09 18.04 Ю 8 н/о н/о +22.7 +14.8 61 +26 +26 жарко 1016.4 1012.9
10 18.04 Ю 7 н/о 1/1 600 м
[]
+20.8 +14.5 67 +23 +23 комфорт 1017.0 1013.5
12 18.04 Ю 4 н/о н/о +19.2 +13.6 70 +20 +20 1017.7 1014.2
13 18.04 Ю 4 н/о н/о +18.4 +13.5 73 +19 +19 1017.7 1014.2 +26.0
15 18.04 В 4 н/о н/о +15.8 +12.0 78 +15 +15 1017.2 1013.7
16 18.04 ЮВ 3 н/о 3/3 600 м
[]
+15.0 +11.6 80 +14 +14 1016.6 1013.1
18 18.04 В 2 н/о н/о +13.7 +10.7 82 +13 +13 1015.9 1012.4
19 18.04 СВ 3 н/о 6/6 600 м
[]
+13.2 +10.2 82 +12 +12 1015.5 1012.0
21 18.04 СВ 4 н/о н/о +12.6 +10.0 84 +11 +11 1015.3 1011.8
22 18.04 СВ 4 н/о н/о +11.6 +9.5 87 +9 +9 1015.4 1011.9
00 19.04 СВ 5 н/о н/о +15.8 +10.6 71 +15 +15 1015.8 1012.3
01 19.04 СВ 4 н/о 3/3 1000 м
[]
+19.7 +9.9 53 +21 +23 комфорт 1016.4 1012.9 +11.5
03 19.04 ЮВ 3 н/о н/о +22.3 +10.1 46 +24 +24 комфорт 1015.5 1012.0
04 19.04 ЮЗ 5 н/о н/о +23.1 +10.2 44 +25 +25 комфорт 1014.7 1011.2
06 19.04 ЮЗ 6 н/о н/о +22.9 +10.0 44 +25 +25 комфорт 1013.6 1010.1
07 19.04 ЮЗ 5 н/о н/о +23.2 +10.3 44 +25 +25 комфорт 1013.4 1009.9
09 19.04 ЮЗ 6 н/о н/о +21.3 +11.6 54 +23 +23 комфорт 1014.0 1010.5
10 19.04 ЮЗ 5 н/о н/о +19.7 +12.0 61 +21 +21 комфорт 1014.2 1010.7
12 19.04 Ю 2 н/о н/о +16.6 +9.8 64 +17 +17 1014.9 1011.4
13 19.04 ЮВ 1 н/о н/о +14.7 +9.1 69 +15 +15 1015.0 1011.5 +24.2
15 19.04 СВ 4 н/о н/о +13.7 +9.7 77 +12 +12 1015.3 1011.8
16 19.04 СВ 4 н/о н/о +13.5 +9.6 77 +12 +12 1015.0 1011.5
18 19.04 С 4 н/о н/о +12.5 +9.3 81 +11 +11 1014.7 1011.2
19 19.04 СВ 5 н/о 1/1 600 м
[]
+12.6 +9.4 81 +10 +10 1014.9 1011.4
21 19.04 С 5 н/о н/о +12.5 +9.5 82 +10 +10 1015.2 1011.7
22 19.04 СВ 5 н/о н/о +12.0 +9.6 85 +10 +10 1015.4 1011.9
00 20.04 СВ 5 н/о н/о +15.5 +11.5 77 +14 +14 1016.0 1012.5
01 20.04 В 6 н/о н/о +20.0 +12.0 60 +21 +21 комфорт 1016.4 1012.9 +11.7
03 20.04 ЮВ 2 н/о н/о +23.3 +11.0 46 +26 +26 жарко 1015.7 1012.2
04 20.04 В 3 н/о н/о +25.2 +9.9 38 +26 +26 жарко 1015.5 1012.0
06 20.04 ЮЗ 5 н/о н/о +24.5 +12.1 46 +26 +26 жарко 1014.2 1010.7
07 20.04 ЮЗ 5 н/о н/о +24.6 +12.2 46 +26 +26 жарко 1014.0 1010.5
09 20.04 Ю 5 н/о н/о +23.3 +12.6 51 +26 +26 жарко 1013.9 1010.4
10 20.04 Ю 3 н/о н/о +20.7 +12.7 60 +23 +23 комфорт 1014.2 1010.7
12 20.04 В 1 н/о н/о +16.1 +11.3 73 +17 +17 1015.3 1011.8
13 20.04 В 2 н/о н/о +15.8 +11.4 75 +16 +16 1015.2 1011.7 +26.8
15 20.04 С 2 н/о н/о +14.0 +10.4 79 +13 +13 1015.6 1012.1
16 20.04 С 4 н/о 1/0
[]
+14.3 +11.1 81 +13 +13 1015.6 1012.1
18 20.04 СВ 4 н/о н/о +14.0 +11.0 82 +13 +13 1015.4 1011.9
19 20.04 СВ 4 н/о н/о +13.2 +10.6 84 +12 +12 1015.1 1011.6
21 20.04 СВ 6 н/о н/о +13.3 +10.5 83 +11 +11 1014.8 1011.3
22 20.04 СВ 6 н/о н/о +14.0 +10.8 81 +12 +12 1014.9 1011.4
00 21.04 С 4 н/о н/о +16.6 +11.5 72 +16 +16 1016.1 1012.6
01 21.04 СВ 2 н/о {туман} 6/0 2000 м
[]
+21.1 +10.9 52 +23 +26 комфорт 1016.1 1012.6 +12.4
03 21.04 В 5 н/о н/о +25.5 +7.1 31 +25 +25 комфорт 1015.8 1012.3
04 21.04 СВ 7 н/о 8/0
[]
+29.2 +7.7 26 +28 +31 жарко 1014.2 1010.7
06 21.04 СЗ 4 н/о н/о +31.8 +6.1 20 +30 +30 жарко 1012.4 1008.9
07 21.04 ЮЗ 6 н/о 9/0
[]
+29.8 +12.3 34 +31 +32 жарко 1011.7 1008.2
09 21.04 Ю 4 н/о н/о +24.7 +14.2 52 +27 +27 жарко 1012.3 1008.8
10 21.04 Ю 3 н/о 8/0 2000 м
[]
+24.0 +14.4 55 +27 +27 жарко 1012.6 1009.1
12 21.04 Ю 3 н/о н/о +22.5 +17.4 73 +27 +27 душно 1014.3 1010.8
13 21.04 В 5 н/о 10/0
[]
+22.3 +18.1 77 +27 +27 душно 1013.1 1009.6 +32.6
15 21.04 СВ 3 н/о н/о +21.1 +15.6 71 +24 +24 комфорт 1012.7 1009.2
16 21.04 СВ 5 н/о 9/9 1500 м
[]
+21.1 +15.6 71 +24 +24 комфорт 1012.2 1008.7
18 21.04 С 3 н/о н/о +21.8 +12.9 57 +24 +24 комфорт 1012.6 1009.1
19 21.04 С 4 н/о 10/0
[]
+21.2 +12.9 59 +23 +23 комфорт 1012.0 1008.5
21 21.04 С 4 н/о н/о +20.2 +14.6 70 +23 +23 комфорт 1013.6 1010.1
22 21.04 СВ 5 н/о 10/0
[]
+20.0 +14.4 70 +22 +22 комфорт 1013.1 1009.6
00 22.04 С 5 н/о н/о +21.8 +16.7 73 +26 +26 душно 1014.4 1010.9
01 22.04 СЗ 4 н/о 10/0
[]
+22.9 +19.1 79 +29 +31 очень
душно
1014.0 1010.5 +16.7
03 22.04 ЮЗ 1 н/о н/о +24.9 +18.1 66 +29 +29 душно 1012.5 1009.0
04 22.04 З 5 н/о 10/0
[]
+26.5 +17.6 58 +31 +34 душно 1012.2 1008.7
06 22.04 З 8 н/о н/о +25.2 +18.4 66 +30 +30 душно 1012.8 1009.3
07 22.04 З 8 н/о 10/10 300 м
[]
+25.7 +17.4 60 +30 +30 душно 1013.1 1009.6
09 22.04 З 7 н/о н/о +24.1 +15.9 60 +27 +27 жарко 1013.5 1010.0
10 22.04 З 5 н/о 1/1 600 м
[]
+22.9 +16.2 66 +27 +27 душно 1014.2 1010.7
12 22.04 З 5 н/о н/о +22.0 +15.8 68 +26 +26 душно 1015.7 1012.2
13 22.04 З 4 н/о 6/6 600 м
[]
+21.6 +15.9 70 +25 +25 комфорт 1016.1 1012.6 +27.7
15 22.04 ЮЗ 4 н/о н/о +20.3 +17.3 83 +24 +24 комфорт 1015.9 1012.4
16 22.04 ЮЗ 5 н/о 8/8 1500 м
[]
+20.3 +15.7 75 +23 +23 комфорт 1015.8 1012.3
18 22.04 ЮЗ 4 н/о н/о +19.3 +13.3 68 +21 +21 комфорт 1015.7 1012.2
19 22.04 ЮЗ 4 н/о 1/1 1000 м
[]
+18.6 +11.4 63 +19 +19 1015.7 1012.2
21 22.04 ЮЗ 3 н/о н/о +18.3 +11.6 65 +19 +19 1016.0 1012.5
22 22.04 ЮЗ 3 н/о 1/1 1000 м
[]
+17.0 +11.5 70 +17 +17 1016.5 1013.0
00 23.04 С 3 н/о н/о +18.8 +13.0 69 +20 +20 1017.7 1014.2
01 23.04 ЮЗ 6 н/о 9/9 1000 м
[]
+21.6 +12.5 56 +24 +24 комфорт 1018.3 1014.8 +13.9
03 23.04 ЮЗ 6 н/о н/о +23.1 +13.0 53 +26 +26 жарко 1018.2 1014.7
04 23.04 ЮЗ 5 н/о 9/9 1000 м
[]
+23.6 +12.9 51 +26 +26 жарко 1018.1 1014.6
06 23.04 Ю 7 н/о н/о +23.3 +14.0 56 +27 +27 душно 1017.1 1013.6
07 23.04 Ю 6 н/о 5/5 600 м
[]
+24.3 +13.8 52 +27 +28 жарко 1017.1 1013.6
09 23.04 Ю 7 н/о н/о +22.2 +13.8 59 +25 +25 комфорт 1017.7 1014.2
10 23.04 Ю 5 н/о н/о +20.4 +12.9 62 +22 +22 комфорт 1017.7 1014.2
12 23.04 Ю 4 н/о н/о +18.1 +12.8 71 +18 +18 1019.0 1015.5
13 23.04 ЮВ 3 н/о н/о +15.2 +11.0 76 +15 +15 1019.3 1015.8 +25.4
15 23.04 ЮВ 3 н/о н/о +14.6 +11.9 84 +14 +14 1019.0 1015.5
16 23.04 ЮВ 4 н/о н/о +13.9 +11.4 85 +13 +13 1018.8 1015.3
18 23.04 ЮВ 3 н/о н/о +12.9 +10.3 84 +11 +11 1018.5 1015.0
19 23.04 ЮВ 2 н/о н/о +12.2 +9.8 85 +11 +11 1018.5 1015.0
21 23.04 ЮВ 2 н/о н/о +11.8 +9.7 87 +11 +11 1018.9 1015.4
22 23.04 ЮВ 2 н/о н/о +11.8 +9.7 87 +11 +11 1019.4 1015.9
00 24.04 ЮВ 2 н/о н/о +15.3 +11.5 78 +15 +15 1020.5 1017.0
01 24.04 ЮВ 8 н/о н/о +21.1 +12.0 56 +23 +23 комфорт 1020.8 1017.3 +11.6
03 24.04 ЮВ 7 н/о н/о +23.0 +10.8 46 +25 +25 комфорт 1020.1 1016.6
04 24.04 Ю 8 н/о н/о +24.0 +9.9 41 +25 +25 комфорт 1019.2 1015.7
06 24.04 Ю 9 н/о н/о +24.5 +10.4 41 +26 +26 жарко 1017.6 1014.1
07 24.04 ЮЗ 9 н/о н/о +23.7 +13.3 52 +26 +26 жарко 1017.7 1014.2
09 24.04 Ю 9 н/о н/о +21.7 +13.6 60 +24 +24 комфорт 1017.8 1014.3
10 24.04 Ю 8 н/о н/о +20.3 +13.7 66 +22 +22 комфорт 1018.4 1014.9
12 24.04 Ю 7 н/о н/о +19.7 +13.9 69 +21 +21 комфорт 1019.1 1015.6
13 24.04 Ю 8 н/о н/о +19.5 +14.1 71 +20 +20 1019.1 1015.6 +25.1
15 24.04 ЮВ 7 н/о н/о +17.2 +12.3 73 +16 +16 1019.5 1016.0
18 24.04 Ю 5 н/о н/о +14.3 +11.3 82 +13 +13 1019.3 1015.8
19 24.04 ЮВ 4 н/о н/о +13.2 +10.9 86 +11 +11 1018.9 1015.4

 

Местоположение метеостанции Geraldton Airport (Западная Австралия, Австралия): широта -28.80 долгота 114.70 высота над уровнем моря 35 м.

В архиве по умолчанию представлена погода в Geraldton Airport за последнюю неделю. Архивные данные за месяц целиком и за предыдущие месяцы, начиная с января 2011 года, Вы можете получить, выбрав интересующий диапазон дат из раскрывающегося списка и нажав кнопку "Ввод!".


*Определитесь, кто Вы:
робот инопланетянин человек

Внимание! Время в таблицах - всемирное. Для получения местного времени необходимо прибавить поправку, которая в Geraldton Airport равна 8 ч.

Смотрите также архив погоды в соседних городах и на ближайших метеорологических станциях:

Погода в Morawa Airport (Западная Австралия, Австралия) (136 км)
Погода в Rottnest Island Lighthouse (Западная Австралия, Австралия) (188 км)
Погода в Dalwallinu (Западная Австралия, Австралия) (252 км)
Погода в Mount Magnet Aero (Западная Австралия, Австралия) (316 км)
Погода в Gingin Aero (Западная Австралия, Австралия) (318 км)
Погода в Shark Bay Airport (Западная Австралия, Австралия) (341 км)
Погода в Bullsbrook Pearce Amo (Западная Австралия, Австралия) (343 км)
Погода в Wanneroo (Западная Австралия, Австралия) (344 км)
Погода в Mount Lawley Perth Metro (Западная Австралия, Австралия) (365 км)
Погода в Swanbourne (Западная Австралия, Австралия) (365 км)

Пояснения к столбцам:

Ветер - указаны скорость ветра в м/с - средняя за 10 мин, порывы в срок и между сроками (в фигурных скобках) и направление, откуда дует ветер: С - северный, СВ - северо-восточный, В - восточный, ЮВ - юго-восточный, Ю - южный, ЮЗ - юго-западный, З - западный, СЗ - северо-западный.
Видимость - горизонтальная дальность видимости в метрах или километрах. При видимости от 1 до 10 км при отсутствии осадков обычно наблюдается дымка, при ухудшении видимости до 1 км и менее - туман. В сухую погоду видимость может ухудшаться дымом, пылью или мглою.
Явления - указаны атмосферные явления, наблюдавшиеся в срок или в последний час перед сроком; фигурными скобками обозначены явления, наблюдавшиеся между сроками (за 1-3 часа до срока); квадратными скобками обозначены град или гололедные отложения с указанием их диаметра в мм.
Облачность - указаны через наклонную черту общая и нижняя облачность в баллах и высота нижней границы облаков в метрах; квадратными скобками обозначены формы облаков: Ci - перистые, Cs - перисто-слоистые, Cc - перисто-кучевые, Ac - высококучевые, As - высокослоистые, Sc - слоисто-кучевые, Ns - слоисто-дождевые, Cu - кучевые, Cb - кучево-дождевые. Подробнее классификацию облаков см. в Атласе облаков (PDF).
T - Температура воздуха - температура, измеренная на высоте 2 м над землей.
Td - Температура точки росы - температура, при понижении до которой содержащийся в воздухе водяной пар достигнет насыщения.
f - Относительная влажность воздуха - влажноcть воздуха, измеренная на высоте 2 м над землей.
Te - Эффективная температура - температура, которую ощущает одетый по сезону человек в тени. Характеристика душности погоды. При расчете учитывается влияние влажности воздуха и скорости ветра на теплоощущения человека.
Tes - Эффективная температура на солнце - температура, которую ощущает человек, с поправкой на солнечный нагрев. Характеристика знойности погоды. Зависит от высоты солнца над горизонтом, облачности и скорости ветра. Ночью, в пасмурную погоду, а также при ветре 12 м/с и более поправка равна нулю.
P - Атмосферное давление - приведенное к уровню моря атмосферное давление.
Po - Атмосферное давление - измеренное на уровне метеостанции атмосферное давление.
Tmin - Минимальная температура - минимум температуры воздуха на высоте 2 м над землей.
Tmax - Максимальная температура - максимум температуры воздуха на высоте 2 м над землей.
R - Количество осадков - Количество выпавших осадков за период времени, мм. При наведении курсора мыши на число - период времени, за который выпало указанное количество осадков.
R24 - Количество осадков - Количество выпавших осадков за 24 часа, мм.
S - Снежный покров - Высота снежного покрова, см. При наведении курсора мыши на число - состояние снежного покрова и степень покрытия местности в баллах.